Home   Weather   Romsey   Past weeks
Flag for United Kingdom

Past Weather in Romsey, England, United Kingdom — Yesterday and Last 2 Weeks

Now
46 °F

Clear.


Feels Like: 44 °F
Forecast: 62 / 47 °F
Wind: 6 mph from Southwest

Location: Middle Wallop

Current Time: May 27, 2019 at 4:14:53 am

Latest Report: May 27, 2019 at 2:50 am


Visibility: N/A

Pressure: 29.89 "Hg

Humidity: 93%

Dew Point: 45 °F

Location of RomseyLocation

Past Weather in Romsey — Graph

°F

Romsey Temperature Yesterday

Maximum temperature yesterday: 64 °F (at 12:50 pm)
Minimum temperature yesterday: 52 °F (at 11:50 pm)
Average temperature yesterday: 59 °F

High & Low Weather Summary for the Past Weeks

 TemperatureHumidityPressure
High72 °F (May 23, 4:50 pm)100% (May 18, 2:50 am)30.69 "Hg (May 18, 2:50 am)
Low39 °F (May 12, 5:50 am)27% (May 13, 5:50 pm)29.68 "Hg (May 18, 4:50 am)
Average56 °F68%30.10 "Hg
* Reported May 12 1:50 am — May 27 1:50 am, Romsey. Weather by CustomWeather, © 2019

Note: Actual official high and low records may vary slightly from our data, if they occured in-between our weather recording intervals... More about our weather records

Advertising

Romsey Weather History for the Previous 24 Hours

Scroll right to see more
 ConditionsComfort  
Time TempWeatherWind HumidityBarometerVisibility
1:50 am
Mon, May 27
48 °FClear.3 mph94%29.89 "HgN/A
12:50 am50 °FClear.5 mph88%29.92 "HgN/A
11:50 pm
Sun, May 26
52 °FClear.7 mph88%29.92 "HgN/A
10:50 pm54 °FClear.7 mph88%29.92 "HgN/A
9:50 pm57 °FClear.10 mph82%29.89 "HgN/A
8:50 pm59 °FSunny.8 mph77%29.89 "HgN/A
7:50 pm61 °FSunny.12 mph72%29.89 "HgN/A
6:50 pm64 °FScattered clouds.10 mph73%29.89 "HgN/A
5:50 pm63 °FPartly sunny.9 mph77%29.89 "HgN/A
4:50 pm63 °FPartly sunny.14 mph83%29.89 "HgN/A
3:50 pm63 °FBroken clouds.8 mph88%29.92 "HgN/A
2:50 pm63 °FPartly sunny.13 mph83%29.92 "HgN/A
1:50 pm64 °FBroken clouds.13 mph78%29.92 "HgN/A
12:50 pm64 °FPartly sunny.12 mph78%29.95 "HgN/A
11:50 am63 °FOvercast.9 mph77%29.95 "HgN/A
10:50 am61 °FOvercast.9 mph83%29.98 "HgN/A
9:50 am59 °FOvercast.12 mph82%29.98 "HgN/A
8:50 am57 °FOvercast.9 mph82%29.98 "HgN/A
7:50 am57 °FLow clouds.8 mph82%29.98 "HgN/A
6:50 am57 °FLow clouds.9 mph88%29.98 "HgN/A
5:50 am55 °FPartly sunny.10 mph88%30.01 "HgN/A
4:50 am55 °FPassing clouds.7 mph88%30.01 "HgN/A
Weather by CustomWeather, © 2019

See weather overview